Wind_Speed
46 46 44 40 35 33 30 28 27 25 24 24 24 23 20 17 14 12 9 8 8 7 5 4 4 5 4 3 2 5 8 10 10 11 12 13 14 14 15 15 16 16 17 16 16 16 16 15 15 15 14 14 14 15 16 17 16 15 15 15 15 15 16
50 49 48 46 42 39 36 32 30 26 25 26 27 23 20 17 16 14 14 12 10 9 8 5 2 3 3 2 2 4 8 9 10 11 11 12 13 14 14 15 15 15 16 16 16 16 16 15 14 14 13 12 13 13 14 15 14 13 13 13 14 14 15
54 53 52 50 47 45 43 39 35 32 29 28 29 26 21 19 18 18 18 16 13 13 12 7 3 2 4 5 6 6 9 11 11 11 11 12 13 14 15 15 16 16 16 16 16 16 16 15 14 14 13 12 11 11 12 13 13 13 13 12 12 13 13
56 56 55 53 50 49 49 46 41 38 35 32 31 29 25 21 20 19 19 18 16 15 15 11 7 6 6 7 10 10 10 12 14 14 14 14 14 14 15 16 17 17 17 17 17 17 16 16 15 14 13 12 11 11 11 11 12 12 12 12 11 11 10
55 55 55 54 53 51 51 51 47 43 39 35 34 32 29 25 22 20 19 19 20 19 16 12 10 10 11 11 12 12 11 13 14 15 15 16 16 16 16 17 18 19 19 19 19 18 17 17 16 16 15 14 12 11 11 11 11 12 12 11 10 10 9
55 55 55 55 55 53 52 53 52 48 45 42 39 36 35 31 27 23 21 21 23 23 18 15 14 12 12 14 14 13 14 14 14 15 16 17 18 17 17 18 19 20 20 21 20 20 19 19 18 17 16 15 14 13 12 12 11 12 12 11 10 9 9
59 57 56 55 55 55 54 54 54 52 51 50 48 43 40 38 33 28 25 24 25 25 21 19 18 15 13 15 15 14 16 17 16 16 17 18 19 19 19 19 20 21 21 22 22 21 21 20 20 19 18 17 17 15 14 14 14 13 13 12 11 11 10
65 63 61 59 57 57 56 55 55 54 53 54 54 50 46 44 41 36 32 30 27 25 23 22 19 17 16 15 15 17 18 18 19 19 19 20 20 21 21 21 21 22 22 23 23 22 22 21 21 21 20 19 19 18 16 16 16 15 15 14 13 13 12
70 69 67 65 64 61 59 58 58 58 57 56 57 55 51 49 48 44 41 39 35 28 26 26 21 20 21 19 18 19 19 20 21 22 22 23 23 22 22 23 23 23 23 24 24 23 23 22 22 21 21 21 20 19 19 18 18 17 17 17 16 15 14
72 72 71 70 69 67 64 62 61 60 60 59 59 58 54 51 52 51 47 48 46 37 31 31 27 24 27 28 25 23 22 21 21 21 25 27 27 26 25 24 24 24 24 25 25 25 24 23 23 22 21 21 21 20 20 19 19 19 19 19 18 17 17
68 69 70 70 70 70 68 65 63 62 61 61 59 57 55 52 53 54 51 51 52 45 38 36 34 32 33 33 30 27 26 25 23 27 33 33 30 29 28 27 26 25 26 26 26 26 26 25 24 23 23 22 22 21 20 20 20 20 20 20 20 20 19
62 63 64 66 67 68 68 67 65 62 60 60 57 55 54 53 53 54 53 53 54 51 45 42 40 38 36 36 35 33 32 31 33 37 40 37 33 30 29 29 29 28 27 28 28 27 27 26 25 25 24 24 23 22 21 21 21 20 20 20 20 20 21
59 60 60 61 61 62 63 65 65 63 61 60 58 55 54 53 53 54 53 52 54 55 52 49 45 41 39 39 39 39 38 36 37 40 40 38 35 32 30 30 31 31 30 29 30 29 29 28 27 27 26 25 24 24 23 22 22 22 21 21 20 21 21
55 57 57 57 59 59 59 60 62 62 61 61 60 57 55 54 55 56 54 52 54 57 56 54 51 46 44 43 41 40 41 39 38 40 41 40 38 35 33 32 31 32 34 33 31 31 31 31 30 29 28 28 27 26 25 25 24 24 23 23 22 22 22
52 54 55 55 56 57 57 57 58 58 58 59 58 57 56 54 54 57 58 55 55 57 59 59 56 52 49 50 46 41 41 41 39 39 42 43 41 39 37 35 32 31 35 36 36 35 34 34 33 32 31 30 30 29 28 27 27 27 26 25 24 24 23
49 51 53 54 54 54 55 57 58 57 56 56 55 53 53 52 52 55 58 59 58 58 60 62 60 56 52 53 53 49 45 45 43 41 41 43 43 42 40 36 34 34 36 38 39 38 37 36 35 35 34 33 33 32 31 30 30 29 29 28 27 26 25
48 49 51 53 53 53 54 56 58 58 57 55 53 52 51 50 50 51 54 59 61 60 61 63 64 61 57 55 55 53 51 50 48 44 43 43 43 43 42 40 41 42 41 40 40 40 39 38 37 37 36 36 35 35 34 33 32 32 31 31 30 29 28
47 48 50 52 52 52 53 55 57 58 58 57 54 52 51 51 50 50 50 54 59 61 61 63 65 66 63 60 58 56 53 53 52 48 46 45 44 43 43 44 47 47 45 43 42 41 40 40 40 39 39 38 38 37 36 36 35 34 34 33 32 31 31
47 48 49 50 52 53 54 55 57 58 59 59 56 53 52 51 50 50 49 50 55 59 61 62 64 66 67 67 66 63 59 57 57 54 52 50 48 46 44 46 49 49 46 45 44 44 43 43 42 42 41 41 40 39 39 38 37 37 36 35 34 34 33
48 49 50 50 50 52 54 55 57 57 58 58 58 56 53 52 50 50 49 49 51 57 60 62 64 65 67 69 70 69 66 63 61 59 57 54 53 51 49 49 50 50 49 47 46 46 46 45 44 43 43 43 43 42 41 41 40 39 38 37 36 36 36
47 49 50 50 50 51 53 55 56 57 56 56 57 58 56 53 51 50 49 49 50 54 59 62 63 65 66 67 69 70 70 68 66 64 61 58 56 55 53 53 53 52 50 49 48 48 48 47 46 44 43 44 45 45 44 43 42 41 40 39 38 38 38
47 48 49 49 49 50 51 54 55 55 56 55 56 57 56 54 52 51 49 49 50 52 56 60 62 64 65 66 67 68 69 69 69 68 66 63 60 58 56 56 56 54 53 51 50 49 49 48 46 44 44 45 46 46 46 45 44 42 41 41 40 40 40
47 48 49 49 48 49 51 53 53 53 54 55 55 56 56 54 53 52 51 51 51 52 54 57 60 62 64 65 66 66 67 68 70 70 70 68 65 63 61 60 60 58 57 55 52 50 49 49 46 44 44 46 46 46 46 45 44 43 42 41 41 42 42
47 48 48 47 47 48 50 52 53 52 52 54 56 56 56 55 54 53 52 52 53 54 54 56 59 61 63 64 65 65 66 67 69 70 70 70 69 67 65 64 63 62 61 60 57 53 51 50 49 47 48 48 47 46 45 44 43 43 42 42 41 42 42
46 47 46 45 44 46 49 51 51 50 50 52 54 55 56 56 55 53 51 50 52 54 55 55 57 59 62 63 64 65 65 66 67 69 70 71 71 71 69 68 66 65 64 63 61 59 56 54 53 53 53 53 51 49 47 45 44 43 43 44 44 44 43
44 44 43 43 44 46 48 49 49 48 49 49 50 52 53 53 53 52 49 47 47 51 54 54 55 57 60 62 64 65 65 65 66 68 70 71 72 72 72 71 70 68 67 66 64 63 61 59 58 58 57 57 55 52 48 47 46 45 44 44 45 45 45
42 42 41 41 43 45 46 47 47 47 47 45 45 46 48 50 50 50 48 45 45 47 51 53 54 55 57 59 61 63 64 65 65 66 68 70 72 73 74 74 73 72 70 69 68 66 64 62 61 60 59 58 56 53 48 46 47 47 46 47 48 48 48
40 41 40 41 42 43 43 44 45 46 47 45 44 45 46 47 48 48 47 45 44 45 47 50 51 52 54 56 58 60 62 64 65 66 67 68 70 73 74 75 75 75 73 72 71 69 68 66 64 63 61 58 58 56 51 46 46 47 47 47 49 50 50
38 39 39 40 41 41 40 41 42 44 45 44 44 45 45 46 47 47 47 46 44 44 44 45 47 49 50 53 55 57 60 62 64 65 66 67 69 70 72 74 75 76 76 75 74 73 72 70 68 67 64 61 59 57 52 46 45 47 47 44 45 48 48
35 36 37 38 39 38 37 38 39 41 41 40 41 43 44 44 44 45 45 45 44 43 42 43 43 45 46 48 51 53 56 59 61 63 65 67 68 69 70 72 74 76 76 76 76 76 75 74 72 70 68 65 61 58 54 48 46 48 49 45 44 47 48
32 33 34 35 37 36 35 35 36 37 38 38 39 40 41 41 42 42 42 42 42 42 41 41 41 41 42 44 46 49 52 55 58 61 63 65 67 68 69 71 72 74 75 76 77 77 77 76 75 73 71 68 65 63 60 55 53 54 54 49 44 43 45
29 30 31 33 34 35 35 34 34 35 35 36 37 39 39 39 39 40 39 39 39 39 39 39 39 39 40 41 43 45 47 50 53 57 60 62 65 66 68 70 71 72 74 75 76 77 77 78 77 77 75 72 70 69 67 63 62 62 59 53 48 45 47
28 29 29 30 32 33 34 34 34 33 33 34 35 37 38 37 37 37 37 37 37 36 36 36 36 37 38 39 40 42 44 47 49 52 55 58 61 64 66 68 70 71 73 74 75 77 78 78 78 78 78 76 74 74 72 70 69 67 63 58 53 51 53
29 28 28 28 29 31 32 32 32 32 32 32 33 35 36 36 36 36 36 35 35 35 34 34 35 35 36 37 38 40 42 44 46 49 51 54 56 59 62 65 67 70 71 73 74 75 77 78 79 79 79 78 78 77 76 74 74 73 71 67 61 58 58
29 28 27 27 28 28 29 29 29 30 30 31 32 33 34 35 35 35 35 34 33 33 33 33 33 34 35 36 37 38 40 42 44 46 48 50 52 55 57 60 63 66 69 71 73 74 75 77 78 79 79 79 79 79 79 78 77 77 77 75 71 67 64
28 27 26 26 26 26 27 27 27 28 28 29 32 33 34 34 34 34 34 33 33 32 32 32 33 33 33 34 35 36 38 40 42 44 46 48 50 52 54 57 59 62 65 68 71 72 74 75 76 77 79 79 80 81 81 81 80 81 80 79 78 76 72
26 26 26 25 24 25 25 25 26 27 26 28 30 32 33 33 33 33 33 32 32 32 32 32 32 32 32 33 34 35 37 38 40 42 44 46 48 50 52 54 56 58 61 64 67 69 71 73 74 76 77 78 79 80 81 82 82 82 82 82 81 80 79
24 24 24 24 23 23 23 24 25 26 26 27 29 31 32 33 33 33 32 32 31 31 31 31 31 31 31 32 33 34 35 37 39 40 42 44 46 48 49 51 53 55 57 60 62 65 67 69 71 73 74 76 77 79 80 81 82 83 84 84 84 83 83
Wind_Direction
230 228 226 222 218 217 218 216 215 219 219 216 217 220 221 221 218 217 224 242 260 274 285 304 335 356 10 37 108 154 160 159 157 157 158 161 163 166 168 168 166 164 163 163 163 162 160 158 156 153 149 140 134 131 129 128 125 119 116 116 118 122 124
230 231 231 229 225 221 222 226 225 223 222 219 218 217 218 219 216 221 230 234 247 263 268 275 312 342 336 319 255 200 186 180 177 176 175 175 176 177 178 179 177 176 175 174 173 172 170 168 167 163 157 149 143 140 140 138 133 126 119 116 116 117 119
229 231 234 234 232 227 225 227 229 230 231 226 220 215 214 215 217 228 234 233 244 258 257 259 279 305 307 295 274 240 211 203 198 199 199 194 190 189 189 189 188 187 186 186 184 181 180 180 179 176 170 163 156 152 152 152 148 139 129 125 123 121 119
229 231 233 235 235 232 229 229 232 235 235 229 223 218 214 214 219 229 235 234 241 248 244 242 239 230 233 251 262 257 232 218 215 215 216 212 206 202 199 199 198 197 196 195 194 192 191 191 190 189 185 180 175 168 163 162 161 155 143 136 134 133 132
226 229 232 233 234 234 232 232 233 236 234 228 223 220 217 216 220 229 238 238 236 238 236 234 232 226 216 215 237 254 245 229 225 224 223 218 215 212 210 209 207 206 204 203 202 201 200 201 201 200 198 195 191 187 181 174 171 170 164 155 149 146 147
223 225 228 230 232 234 235 236 236 236 235 231 228 226 223 222 222 229 239 236 230 231 230 222 220 226 227 220 228 248 250 239 231 228 227 224 220 219 217 217 216 214 212 210 208 207 206 207 208 208 208 207 205 204 201 194 188 186 186 185 179 172 168
225 224 225 226 229 232 234 237 239 239 238 236 235 234 231 227 225 228 236 232 225 225 225 221 219 224 235 233 229 237 247 246 239 233 233 231 229 227 224 222 222 221 219 217 215 213 212 212 213 214 215 215 215 216 214 211 208 204 204 206 206 204 200
230 228 227 227 230 232 232 234 237 239 240 239 239 240 238 233 229 229 231 226 218 218 219 221 225 233 244 244 233 231 239 246 244 239 238 237 236 234 231 227 226 224 224 223 221 220 219 218 218 219 219 221 222 223 223 221 220 220 220 220 219 218 217
233 232 232 232 233 235 236 236 237 239 241 243 243 244 242 237 232 230 230 225 222 223 222 220 223 232 239 240 233 231 236 244 247 246 244 242 240 237 235 232 230 227 225 225 226 225 225 224 224 224 225 226 227 227 228 229 229 230 231 231 231 229 225
234 235 235 235 236 237 238 240 240 241 242 244 245 246 245 239 233 232 232 229 228 231 229 223 222 225 228 228 224 224 227 235 246 251 248 246 243 240 238 235 233 231 228 227 228 228 228 228 228 229 230 231 232 233 233 234 235 236 237 238 239 238 236
234 235 235 236 237 237 238 239 241 242 242 243 244 245 243 238 233 232 232 230 229 229 228 225 225 225 224 223 221 219 219 220 225 233 237 238 238 238 239 237 235 233 232 231 231 230 230 231 231 232 233 234 235 236 237 238 239 240 241 242 244 244 244
234 234 235 235 236 237 237 237 239 240 240 240 242 243 242 237 234 231 230 229 227 227 228 226 225 225 222 222 222 220 219 218 216 221 228 231 233 235 238 239 238 235 234 233 233 233 234 234 234 235 236 237 238 238 240 241 242 243 243 245 247 248 248
234 234 234 234 235 235 236 236 236 237 238 240 242 243 242 238 234 229 227 227 224 224 226 225 224 223 219 220 223 222 221 222 221 222 227 230 231 232 234 237 238 237 236 235 234 235 235 236 237 238 239 240 241 242 242 243 243 245 246 246 248 250 251
233 233 233 233 234 234 235 235 234 235 238 239 240 243 243 239 234 229 227 227 224 222 224 224 224 223 219 219 221 221 222 225 227 227 229 231 230 229 231 234 236 238 237 237 236 236 236 237 238 239 241 242 243 245 247 248 248 248 248 249 249 251 253
232 231 231 232 233 234 235 234 232 233 235 236 238 241 241 239 235 231 229 228 226 223 222 222 224 225 223 223 224 222 221 224 228 229 229 230 231 230 230 232 235 239 239 237 237 237 237 237 238 239 240 242 244 246 248 250 252 253 254 254 254 254 255
231 231 231 232 233 235 235 233 231 232 233 233 235 238 237 237 236 233 231 229 227 225 223 222 223 225 225 225 226 225 223 225 229 232 231 231 232 231 231 232 235 238 239 237 237 238 238 238 238 239 240 242 244 246 248 249 252 254 256 256 257 258 259
230 231 232 232 233 233 234 232 231 231 230 229 232 234 235 237 237 235 233 230 227 226 226 224 224 224 225 225 225 226 227 228 230 232 233 234 234 233 231 231 233 237 239 239 239 240 240 240 240 241 241 243 245 247 248 250 252 253 255 256 258 260 261
231 232 233 233 232 232 232 231 229 229 228 229 231 233 234 237 238 238 237 233 228 227 227 227 226 226 226 225 224 226 229 232 232 231 232 234 236 235 233 231 233 237 240 241 241 242 243 243 244 244 244 245 247 249 250 251 253 254 255 257 259 261 263
233 233 234 234 232 231 231 231 229 229 229 230 231 231 234 237 239 239 239 237 233 230 228 229 229 228 228 227 227 228 231 234 235 235 234 235 237 238 236 235 236 237 239 240 241 242 244 245 245 246 247 248 249 251 252 253 254 255 256 258 260 262 264
235 235 235 235 234 232 231 232 231 230 231 231 230 230 234 237 237 239 241 240 238 233 230 230 230 231 230 230 230 232 233 234 235 236 236 236 237 238 238 238 239 238 239 240 241 242 243 244 245 246 247 249 250 251 253 254 255 257 258 259 261 263 265
235 236 236 235 235 234 233 233 233 232 232 232 230 231 234 236 236 238 240 241 240 236 233 231 232 232 232 232 232 233 234 234 235 236 236 237 238 239 239 239 239 240 239 240 241 242 243 244 245 247 249 251 251 252 253 254 255 257 259 260 262 263 265
236 236 236 236 235 235 235 235 234 232 232 232 232 232 234 235 235 235 237 239 240 238 235 233 233 233 234 234 234 234 234 235 236 236 237 237 237 238 238 239 240 240 240 240 241 241 243 244 246 249 253 254 254 253 253 254 255 255 257 259 262 263 265
239 238 237 236 236 235 236 236 235 233 232 233 233 232 233 234 234 235 238 239 240 240 239 236 234 234 235 235 236 235 235 235 236 237 238 238 238 237 237 238 240 241 241 242 241 240 240 242 244 248 251 253 253 254 254 254 255 256 257 258 261 263 265
239 240 239 237 236 236 237 238 237 235 235 235 235 234 235 236 236 238 241 243 242 242 241 239 237 235 235 236 237 237 236 236 236 237 238 238 238 237 237 237 239 241 242 243 244 243 241 241 241 242 244 246 249 252 254 255 257 259 260 260 260 262 264
238 240 240 240 239 238 239 238 238 237 237 238 238 237 237 238 239 240 244 246 244 241 240 240 238 237 237 237 237 238 238 238 237 236 237 238 239 239 238 238 238 240 241 243 245 245 244 244 243 242 243 244 246 250 254 256 258 260 262 263 262 261 263
241 240 240 241 241 242 241 240 238 238 239 239 239 239 238 238 238 240 244 246 244 240 238 239 239 239 238 238 238 239 239 240 239 238 237 238 239 240 240 239 239 239 240 242 244 245 245 245 245 245 246 247 248 249 253 257 258 260 262 263 263 263 263
244 243 241 241 242 243 243 241 240 239 239 239 239 238 237 237 238 240 243 246 245 241 238 239 240 240 240 240 240 240 240 240 241 240 239 239 239 240 240 241 241 240 240 241 242 244 245 245 245 245 246 248 249 249 250 254 258 259 261 263 263 263 263
245 245 244 243 243 243 243 243 242 243 242 240 238 239 239 238 240 241 243 244 244 241 239 239 240 240 240 240 241 241 242 242 242 242 242 241 240 240 241 241 242 242 241 241 242 243 244 245 245 244 245 248 250 249 249 252 255 258 260 262 263 263 264
242 244 244 244 244 244 243 242 243 244 245 242 239 239 240 241 242 242 242 242 242 241 239 238 239 239 239 239 240 241 242 243 243 244 244 243 243 242 242 242 242 243 243 242 242 243 243 244 244 244 245 247 248 248 247 247 250 255 257 258 261 263 264
241 241 242 243 245 245 244 243 243 243 243 241 239 240 241 241 242 241 240 239 239 239 238 237 238 238 238 239 240 241 242 243 244 244 245 245 245 245 244 243 243 243 244 244 243 243 244 244 245 245 245 246 246 246 245 242 244 251 254 253 254 258 260
242 241 241 241 242 243 244 244 245 244 241 239 239 240 241 241 240 239 237 236 236 237 237 237 237 238 239 240 240 241 242 243 243 244 245 246 246 246 246 246 245 245 245 245 245 245 244 245 245 245 246 245 244 244 245 242 242 247 250 249 250 254 256
245 244 243 242 241 240 240 242 245 246 242 238 236 238 240 240 238 235 234 233 234 235 236 237 238 239 240 241 242 242 243 244 244 245 245 246 246 247 247 248 248 247 247 246 246 246 245 245 245 246 246 245 244 244 245 244 244 246 247 247 248 251 252
246 245 245 244 242 240 239 239 242 245 243 239 236 237 237 237 235 233 232 232 233 234 236 237 239 240 241 242 243 244 245 246 246 246 246 247 247 247 248 248 249 249 249 248 248 247 247 246 246 246 246 246 245 245 246 246 246 246 247 245 244 244 246
244 244 245 244 243 242 240 240 240 242 242 240 237 235 234 233 232 232 232 232 232 233 235 237 240 242 243 244 246 247 248 248 249 249 249 249 249 249 249 249 249 249 249 250 249 249 248 248 247 247 247 246 245 245 246 247 248 248 248 247 244 242 244
241 242 244 244 243 242 242 241 239 239 240 240 237 234 232 231 231 231 231 231 232 234 236 239 242 244 246 248 249 250 250 251 251 251 251 251 251 250 250 250 250 250 250 250 250 250 250 249 248 248 247 247 247 246 246 247 248 248 249 249 247 246 245
241 242 243 243 241 241 242 241 239 239 239 238 234 231 231 230 230 230 231 232 234 236 239 243 245 248 250 252 253 254 254 254 253 253 252 252 252 252 251 251 251 252 252 252 251 251 250 250 250 249 248 247 247 247 247 247 247 248 249 250 250 249 247
242 243 242 241 240 239 239 239 239 239 239 235 230 228 229 230 230 231 233 235 238 241 244 247 249 252 255 257 258 259 259 258 257 256 255 255 254 254 253 253 252 252 252 253 253 252 252 251 251 250 250 248 248 247 247 247 247 247 248 249 249 249 249
241 243 242 240 239 238 236 236 236 236 236 234 230 228 228 229 231 233 236 238 242 245 248 251 255 259 262 263 263 263 263 263 262 262 261 260 259 257 256 255 254 253 252 252 252 252 252 252 252 251 251 250 249 248 247 247 247 247 247 247 248 248 249
Height
10920 10923 10927 10931 10935 10937 10938 10940 10943 10944 10945 10947 10949 10951 10954 10956 10957 10958 10959 10960 10961 10961 10962 10962 10962 10961 10961 10962 10963 10964 10964 10964 10965 10965 10965 10965 10965 10965 10966 10966 10967 10967 10968 10969 10969 10970 10970 10971 10972 10972 10973 10973 10973 10973 10973 10974 10974 10974 10974 10974 10974 10973 10972
10916 10919 10922 10926 10930 10933 10934 10936 10939 10941 10943 10945 10947 10949 10952 10954 10955 10956 10957 10958 10959 10960 10960 10961 10961 10960 10961 10962 10964 10965 10965 10966 10966 10967 10967 10967 10967 10967 10967 10968 10968 10969 10969 10970 10970 10971 10971 10972 10973 10974 10974 10975 10975 10975 10975 10975 10976 10976 10976 10976 10976 10975 10974
10913 10915 10918 10921 10925 10929 10930 10931 10934 10937 10939 10942 10945 10947 10949 10951 10953 10954 10955 10956 10958 10959 10959 10959 10959 10959 10960 10962 10964 10965 10966 10966 10967 10967 10968 10968 10968 10968 10968 10969 10969 10970 10970 10971 10972 10972 10972 10973 10974 10975 10975 10976 10976 10976 10976 10976 10977 10977 10977 10977 10977 10977 10976
10908 10911 10914 10917 10920 10924 10926 10928 10930 10933 10936 10939 10942 10945 10947 10948 10950 10951 10953 10955 10956 10957 10957 10957 10956 10956 10958 10961 10963 10965 10966 10966 10967 10967 10968 10968 10969 10969 10969 10969 10970 10970 10971 10972 10972 10973 10973 10974 10974 10975 10976 10976 10976 10977 10977 10977 10978 10978 10978 10978 10978 10978 10978
10904 10906 10909 10912 10915 10918 10921 10923 10926 10929 10932 10935 10938 10941 10944 10946 10947 10948 10951 10953 10954 10955 10956 10955 10955 10955 10956 10958 10960 10963 10965 10966 10966 10967 10967 10968 10969 10969 10969 10969 10970 10970 10971 10972 10972 10973 10974 10974 10975 10975 10976 10976 10976 10977 10977 10978 10978 10979 10979 10979 10979 10979 10978
10898 10902 10905 10908 10910 10913 10916 10918 10921 10924 10928 10931 10934 10938 10940 10943 10944 10946 10948 10950 10952 10953 10954 10953 10953 10954 10956 10958 10959 10961 10964 10965 10965 10966 10967 10968 10968 10969 10969 10969 10969 10970 10970 10971 10972 10972 10973 10974 10975 10975 10975 10976 10976 10977 10977 10978 10978 10979 10979 10979 10979 10979 10979
10893 10896 10900 10903 10905 10907 10911 10914 10917 10920 10923 10926 10930 10933 10936 10939 10941 10944 10946 10948 10950 10951 10952 10952 10952 10954 10955 10958 10960 10962 10963 10964 10965 10965 10966 10966 10967 10968 10968 10968 10968 10969 10969 10970 10971 10972 10972 10973 10974 10974 10975 10975 10976 10976 10977 10977 10978 10978 10978 10979 10979 10979 10979
10887 10890 10894 10897 10899 10902 10906 10910 10912 10915 10918 10921 10924 10928 10932 10935 10938 10941 10944 10946 10948 10949 10950 10950 10952 10953 10954 10956 10960 10962 10962 10963 10964 10964 10964 10965 10965 10966 10966 10967 10967 10967 10968 10969 10969 10970 10971 10972 10972 10973 10973 10974 10975 10975 10976 10976 10977 10977 10978 10978 10978 10979 10979
10880 10884 10888 10891 10894 10897 10900 10904 10907 10910 10913 10916 10919 10923 10927 10931 10934 10937 10940 10942 10944 10946 10947 10949 10951 10952 10952 10953 10957 10960 10963 10963 10963 10963 10963 10962 10963 10964 10964 10965 10965 10965 10966 10966 10967 10968 10969 10970 10970 10971 10972 10972 10973 10974 10974 10975 10975 10976 10976 10977 10977 10978 10978
10873 10877 10881 10884 10888 10891 10894 10897 10901 10904 10908 10911 10914 10917 10922 10926 10929 10932 10935 10937 10939 10942 10945 10947 10949 10950 10949 10950 10953 10956 10959 10961 10962 10962 10960 10959 10960 10961 10962 10963 10963 10964 10964 10964 10965 10966 10967 10967 10968 10969 10969 10970 10971 10972 10972 10973 10974 10974 10975 10975 10976 10976 10977
10867 10871 10874 10878 10881 10885 10888 10892 10895 10898 10901 10905 10908 10912 10915 10919 10923 10926 10929 10931 10934 10937 10940 10943 10945 10945 10946 10949 10951 10952 10952 10953 10954 10953 10950 10950 10954 10957 10958 10959 10960 10961 10962 10962 10963 10963 10964 10965 10966 10966 10967 10967 10968 10969 10970 10971 10971 10972 10973 10973 10974 10974 10975
10861 10865 10868 10871 10875 10878 10882 10886 10889 10891 10895 10898 10901 10905 10909 10913 10916 10919 10923 10925 10928 10931 10935 10938 10940 10940 10943 10946 10946 10946 10946 10945 10944 10941 10940 10945 10951 10953 10954 10956 10957 10958 10959 10960 10960 10961 10962 10963 10963 10964 10965 10965 10966 10967 10968 10968 10969 10969 10970 10971 10971 10972 10972
10855 10859 10862 10865 10868 10871 10875 10879 10882 10886 10889 10892 10894 10898 10902 10906 10909 10913 10916 10919 10922 10925 10929 10932 10935 10937 10939 10941 10940 10940 10940 10941 10940 10940 10941 10944 10947 10949 10951 10952 10954 10955 10956 10957 10957 10958 10959 10960 10961 10962 10963 10963 10964 10965 10965 10966 10967 10967 10968 10968 10969 10969 10970
10849 10853 10857 10859 10862 10865 10868 10872 10876 10879 10883 10885 10888 10891 10894 10899 10902 10906 10910 10913 10916 10919 10923 10926 10929 10932 10934 10934 10934 10935 10936 10938 10938 10939 10940 10942 10943 10946 10947 10949 10950 10952 10953 10954 10954 10955 10956 10957 10958 10959 10960 10961 10962 10963 10963 10964 10964 10965 10965 10966 10966 10967 10967
10844 10847 10851 10854 10856 10859 10862 10865 10869 10873 10876 10879 10882 10884 10887 10891 10895 10899 10902 10906 10909 10913 10916 10920 10923 10926 10928 10928 10929 10931 10933 10934 10934 10935 10936 10938 10940 10942 10944 10946 10948 10948 10948 10949 10950 10951 10952 10953 10954 10955 10956 10957 10958 10959 10960 10961 10962 10962 10963 10964 10964 10965 10965
10838 10841 10845 10848 10850 10853 10856 10859 10863 10867 10870 10873 10876 10878 10881 10884 10887 10891 10895 10899 10903 10906 10910 10913 10916 10919 10921 10922 10924 10926 10928 10928 10929 10930 10932 10933 10936 10938 10941 10945 10945 10942 10941 10943 10945 10946 10948 10949 10951 10952 10953 10954 10955 10956 10957 10958 10959 10959 10960 10961 10962 10962 10963
10833 10835 10838 10841 10844 10847 10850 10853 10856 10860 10864 10868 10870 10872 10874 10877 10880 10884 10888 10891 10895 10899 10903 10906 10910 10913 10915 10916 10918 10921 10922 10922 10923 10925 10927 10929 10931 10934 10938 10941 10938 10935 10935 10939 10941 10942 10944 10946 10947 10948 10950 10951 10952 10952 10953 10954 10955 10956 10957 10958 10959 10959 10960
10826 10829 10831 10834 10838 10841 10844 10847 10850 10854 10858 10861 10864 10867 10868 10871 10874 10878 10881 10885 10888 10892 10896 10899 10902 10905 10908 10910 10912 10914 10916 10916 10918 10920 10923 10924 10927 10930 10933 10934 10931 10930 10933 10936 10937 10939 10941 10942 10944 10945 10946 10948 10948 10949 10950 10951 10952 10952 10953 10954 10956 10956 10957
10821 10823 10825 10828 10832 10836 10838 10841 10844 10848 10852 10855 10858 10861 10863 10866 10869 10872 10875 10878 10882 10885 10889 10891 10894 10897 10900 10902 10905 10908 10910 10911 10912 10915 10918 10920 10922 10925 10928 10928 10926 10927 10930 10932 10934 10936 10937 10938 10939 10941 10942 10944 10945 10946 10947 10948 10948 10949 10950 10951 10952 10953 10953
10815 10817 10819 10822 10827 10830 10833 10835 10838 10842 10846 10849 10852 10855 10858 10861 10864 10866 10869 10872 10875 10878 10881 10884 10887 10889 10892 10895 10898 10900 10903 10905 10906 10909 10912 10915 10917 10920 10922 10922 10922 10923 10926 10929 10930 10931 10932 10933 10935 10936 10938 10939 10940 10941 10943 10944 10945 10946 10946 10948 10949 10949 10949
10810 10812 10814 10817 10822 10825 10828 10829 10833 10837 10841 10843 10846 10850 10852 10856 10859 10861 10864 10866 10869 10872 10875 10877 10880 10882 10885 10888 10891 10893 10896 10898 10900 10903 10907 10910 10912 10914 10916 10917 10917 10919 10922 10924 10925 10926 10927 10929 10930 10932 10934 10935 10936 10937 10938 10939 10941 10942 10943 10943 10944 10945 10945
10805 10806 10808 10812 10817 10820 10822 10823 10827 10831 10835 10838 10841 10844 10847 10850 10853 10856 10859 10861 10863 10865 10868 10870 10873 10875 10877 10880 10883 10886 10889 10891 10894 10897 10900 10903 10906 10908 10910 10911 10911 10913 10916 10919 10920 10922 10923 10925 10927 10930 10931 10931 10932 10932 10933 10934 10936 10937 10938 10939 10940 10940 10939
10799 10801 10803 10808 10812 10815 10816 10817 10821 10826 10830 10832 10835 10838 10841 10844 10847 10851 10854 10856 10858 10859 10861 10864 10866 10868 10871 10873 10876 10879 10882 10884 10887 10890 10892 10896 10899 10901 10903 10905 10905 10907 10910 10912 10914 10917 10919 10921 10924 10927 10926 10926 10926 10927 10929 10930 10931 10932 10934 10935 10935 10934 10934
10794 10796 10799 10803 10808 10811 10811 10812 10816 10821 10825 10826 10829 10832 10836 10838 10841 10844 10847 10850 10851 10853 10855 10857 10859 10862 10864 10866 10869 10871 10874 10877 10880 10882 10885 10887 10890 10893 10896 10898 10900 10902 10904 10906 10909 10912 10914 10917 10920 10920 10919 10919 10921 10922 10924 10926 10927 10928 10929 10931 10932 10931 10930
10790 10791 10795 10800 10804 10805 10805 10807 10812 10817 10819 10820 10823 10826 10830 10832 10835 10838 10840 10843 10844 10846 10849 10851 10852 10855 10857 10859 10862 10864 10867 10870 10872 10875 10877 10879 10882 10885 10888 10891 10894 10896 10898 10900 10903 10906 10908 10911 10912 10913 10913 10914 10917 10919 10921 10922 10924 10925 10926 10926 10926 10927 10926
10786 10789 10793 10797 10798 10798 10799 10802 10808 10811 10813 10815 10818 10821 10824 10826 10829 10832 10834 10836 10837 10839 10842 10844 10846 10848 10850 10852 10855 10857 10860 10863 10865 10867 10870 10872 10874 10877 10880 10883 10886 10889 10892 10894 10897 10899 10902 10904 10905 10906 10907 10909 10913 10916 10919 10920 10920 10921 10921 10921 10921 10920 10920
10782 10785 10789 10791 10792 10792 10794 10798 10803 10805 10807 10810 10813 10815 10817 10820 10823 10825 10828 10829 10831 10833 10835 10837 10839 10842 10844 10846 10848 10850 10853 10855 10857 10859 10862 10864 10866 10869 10872 10875 10878 10881 10884 10887 10890 10892 10894 10896 10898 10900 10902 10904 10907 10912 10916 10919 10918 10916 10916 10916 10915 10914 10913
10778 10781 10784 10785 10786 10787 10790 10794 10797 10799 10801 10805 10807 10809 10812 10814 10817 10819 10821 10823 10825 10826 10828 10830 10833 10835 10837 10839 10841 10843 10845 10847 10849 10851 10853 10856 10858 10861 10864 10866 10869 10873 10876 10879 10882 10885 10887 10888 10890 10892 10896 10899 10902 10905 10911 10914 10913 10910 10910 10910 10909 10908 10908
10774 10776 10778 10780 10780 10782 10786 10789 10791 10793 10795 10799 10802 10804 10806 10809 10811 10813 10815 10817 10819 10820 10822 10824 10826 10828 10831 10833 10835 10837 10838 10840 10842 10843 10845 10848 10850 10853 10856 10858 10861 10864 10867 10871 10874 10876 10878 10880 10882 10885 10889 10893 10896 10899 10903 10907 10905 10902 10902 10905 10905 10903 10902
10771 10773 10774 10775 10776 10778 10781 10784 10786 10788 10790 10793 10796 10798 10800 10803 10805 10807 10809 10811 10813 10815 10816 10818 10820 10822 10824 10826 10828 10830 10831 10833 10834 10835 10837 10839 10842 10844 10847 10849 10852 10855 10858 10862 10865 10867 10870 10872 10874 10878 10882 10886 10889 10891 10894 10898 10899 10895 10895 10899 10900 10898 10898
10766 10769 10770 10771 10772 10774 10777 10779 10780 10782 10785 10789 10791 10793 10795 10797 10799 10801 10803 10805 10807 10809 10811 10812 10814 10817 10819 10821 10822 10823 10824 10825 10827 10828 10830 10832 10834 10836 10838 10840 10843 10846 10849 10853 10855 10858 10861 10864 10867 10870 10874 10877 10881 10883 10885 10890 10891 10887 10886 10891 10894 10894 10893
10762 10764 10766 10767 10768 10770 10772 10774 10776 10777 10780 10784 10786 10788 10789 10792 10794 10796 10798 10800 10802 10804 10806 10807 10809 10811 10813 10815 10816 10817 10818 10819 10820 10821 10822 10824 10826 10828 10830 10832 10835 10837 10840 10843 10846 10848 10852 10855 10858 10861 10864 10868 10872 10874 10876 10880 10881 10879 10880 10884 10888 10888 10886
10758 10760 10761 10763 10764 10766 10768 10770 10772 10773 10775 10779 10781 10783 10785 10787 10788 10790 10793 10795 10797 10799 10801 10803 10804 10806 10808 10809 10811 10812 10812 10813 10814 10814 10816 10817 10819 10821 10823 10825 10827 10828 10831 10833 10836 10839 10841 10844 10848 10851 10854 10858 10862 10864 10867 10870 10871 10872 10874 10876 10878 10879 10878
10755 10756 10757 10758 10760 10761 10763 10765 10767 10769 10771 10774 10776 10778 10780 10782 10784 10786 10788 10790 10792 10794 10796 10798 10799 10801 10802 10804 10805 10806 10807 10807 10808 10808 10809 10811 10813 10814 10816 10817 10818 10820 10822 10824 10826 10828 10831 10834 10837 10841 10844 10848 10851 10854 10857 10860 10861 10862 10864 10865 10868 10871 10872
10751 10752 10754 10755 10756 10757 10759 10761 10763 10765 10767 10769 10771 10773 10775 10777 10779 10781 10783 10785 10787 10789 10791 10793 10794 10796 10797 10799 10800 10801 10801 10802 10802 10802 10803 10804 10806 10807 10808 10809 10810 10811 10813 10815 10817 10819 10821 10824 10827 10830 10834 10837 10840 10844 10847 10849 10850 10851 10853 10855 10859 10862 10863
10747 10749 10750 10751 10752 10753 10755 10756 10758 10761 10762 10764 10766 10768 10770 10773 10775 10777 10779 10781 10783 10785 10786 10788 10789 10791 10792 10794 10795 10795 10795 10795 10796 10796 10797 10798 10798 10799 10800 10801 10802 10803 10804 10805 10807 10809 10811 10813 10816 10819 10823 10826 10829 10832 10835 10838 10840 10841 10843 10846 10849 10851 10853
10744 10745 10746 10748 10749 10750 10751 10752 10754 10756 10758 10760 10762 10764 10766 10768 10770 10772 10774 10776 10778 10780 10781 10783 10784 10786 10787 10788 10789 10789 10789 10789 10789 10789 10790 10790 10791 10792 10793 10794 10795 10795 10796 10796 10798 10799 10801 10803 10806 10808 10811 10815 10818 10821 10824 10826 10829 10831 10833 10835 10837 10840 10842
10740 10742 10743 10744 10745 10746 10747 10749 10750 10752 10754 10756 10758 10760 10762 10764 10766 10768 10769 10771 10773 10775 10776 10778 10780 10781 10782 10782 10783 10783 10783 10782 10782 10782 10782 10783 10783 10784 10785 10785 10786 10787 10787 10788 10789 10790 10791 10793 10795 10797 10800 10803 10806 10809 10812 10814 10817 10819 10822 10824 10826 10828 10830